Weather History for KROS - January, 2014

Change the Weather History Date:

Thursday, January 9, 2014

  Actual Average (KCBG) Record (KCBG)
Temperature  
Mean Temperature -2 °F -  
Max Temperature 16 °F 14 °F 48 °F (2002)
Min Temperature -20 °F -5 °F -41 °F (1977)
Degree Days  
Heating Degree Days 67    
Moisture  
Dew Point -3 °F    
Average Humidity 74    
Maximum Humidity 90    
Minimum Humidity 60    
Precipitation  
Precipitation 0.00 in - - ()
Sea Level Pressure  
Sea Level Pressure 30.13 in    
Wind  
Wind Speed 6 mph (SSE)    
Max Wind Speed 16 mph    
Max Gust Speed 22 mph    
Visibility 10 miles    
Events      
Averages and records for this station are not official NWS values.
T = Trace of Precipitation, MM = Missing Value Source: NWS Daily Summary

Daily Weather History Graph

Daily Weather History Graph

Search for Another Location

Airport or City:

Trip Planner

Search our weather history database for the weather conditions in past years. The results will help you decide how hot, cold, wet, or windy it might be!

Date:

Astronomy

Jan. 09, 2014 Rise Set
Actual Time 7:51 AM CST 4:46 PM CST
Civil Twilight 7:17 AM CST 5:20 PM CST
Nautical Twilight 6:40 AM CST 5:57 PM CST
Astronomical Twilight 6:04 AM CST 6:33 PM CST
Moon 12:20 PM CST (1/9) 1:51 AM CST (1/9)
Length of Visible Light 10h 02m
Length of Day
8h 55m
Waxing Gibbous, 66% of the Moon is Illuminated
Jan 9
Waxing Gibbous
Jan 15
Full
Jan 23
Last Quarter
Jan 30
New
Feb 6
First Quarter

Hourly Weather History & Observations

Time (CST) Temp. Windchill Dew Point Humidity Pressure Visibility Wind Dir Wind Speed Gust Speed Precip Events Conditions
12:15 AM -20.4 °F - -25.4 °F 78% 30.40 in 10.0 mi Calm Calm - N/A   Mostly Cloudy
12:35 AM -19.5 °F - -24.7 °F 77% 30.39 in 10.0 mi Calm Calm - N/A   Scattered Clouds
12:54 AM -18.8 °F -29.3 °F -23.8 °F 78% 30.38 in 10.0 mi SSE 3.5 mph - N/A   Scattered Clouds
1:15 AM -17.3 °F - -22.0 °F 79% 30.39 in 10.0 mi Calm Calm - N/A   Scattered Clouds
1:35 AM -16.2 °F -26.4 °F -21.1 °F 79% 30.38 in 10.0 mi South 3.5 mph - N/A   Scattered Clouds
1:54 AM -15.9 °F - -20.6 °F 79% 30.38 in 10.0 mi Calm Calm - N/A   Scattered Clouds
2:15 AM -16.2 °F - -21.1 °F 79% 30.37 in 10.0 mi Calm Calm - N/A   Scattered Clouds
2:35 AM -15.9 °F -26.0 °F -20.7 °F 79% 30.36 in 10.0 mi SE 3.5 mph - N/A   Scattered Clouds
2:54 AM -15.0 °F -27.4 °F -19.7 °F 79% 30.35 in 10.0 mi SE 4.6 mph - N/A   Mostly Cloudy
3:15 AM -13.0 °F - -17.7 °F 80% 30.34 in 10.0 mi Calm Calm - N/A   Overcast
3:35 AM -11.6 °F -23.4 °F -16.2 °F 80% 30.33 in 10.0 mi SSE 4.6 mph - N/A   Overcast
3:54 AM -9.9 °F -21.5 °F -14.8 °F 79% 30.34 in 10.0 mi SSW 4.6 mph - N/A   Overcast
4:15 AM -8.9 °F -22.1 °F -13.9 °F 79% 30.32 in 10.0 mi SSE 5.8 mph - N/A   Overcast
4:35 AM -7.8 °F -19.0 °F -12.8 °F 79% 30.31 in 10.0 mi SSE 4.6 mph - N/A   Overcast
4:54 AM -7.6 °F -16.5 °F -12.3 °F 80% 30.32 in 10.0 mi South 3.5 mph - N/A   Overcast
5:15 AM -6.9 °F -17.9 °F -11.6 °F 80% 30.30 in 10.0 mi South 4.6 mph - N/A   Overcast
5:35 AM -6.2 °F -20.4 °F -10.8 °F 80% 30.29 in 10.0 mi SSE 6.9 mph - N/A   Overcast
5:54 AM -5.3 °F -19.3 °F -10.1 °F 80% 30.27 in 10.0 mi SE 6.9 mph - N/A   Overcast
6:15 AM -4.5 °F -21.9 °F -9.4 °F 80% 30.26 in 10.0 mi SSE 10.4 mph - N/A   Overcast
6:35 AM -3.8 °F -21.0 °F -8.5 °F 80% 30.25 in 10.0 mi SSE 10.4 mph - N/A   Overcast
6:54 AM -2.6 °F -18.4 °F -7.8 °F 78% 30.24 in 10.0 mi SSE 9.2 mph - N/A   Overcast
7:15 AM -1.7 °F -18.3 °F -7.8 °F 75% 30.23 in 10.0 mi SSE 10.4 mph - N/A   Overcast
7:35 AM -1.3 °F -15.7 °F -7.8 °F 74% 30.23 in 10.0 mi SSE 8.1 mph - N/A   Overcast
7:55 AM -0.4 °F -14.7 °F -7.2 °F 73% 30.22 in 10.0 mi SSE 8.1 mph - N/A   Overcast
8:15 AM 0.3 °F -13.8 °F -6.7 °F 72% 30.22 in 10.0 mi SSE 8.1 mph - N/A   Overcast
8:35 AM 1.2 °F -13.7 °F -6.3 °F 71% 30.22 in 10.0 mi SSE 9.2 mph - N/A   Overcast
8:55 AM 1.8 °F -14.0 °F -6.0 °F 70% 30.21 in 10.0 mi SSE 10.4 mph - N/A   Overcast
9:15 AM 2.7 °F -14.5 °F -5.8 °F 68% 30.20 in 10.0 mi SSE 12.7 mph 16.1 mph N/A   Overcast
9:35 AM 3.2 °F -10.3 °F -5.4 °F 67% 30.19 in 10.0 mi SSE 8.1 mph - N/A   Overcast
9:55 AM 4.1 °F -11.1 °F -4.9 °F 66% 30.19 in 10.0 mi SSE 10.4 mph - N/A   Overcast
10:15 AM 5.0 °F -10.8 °F -4.9 °F 64% 30.18 in 10.0 mi SSE 11.5 mph 17.3 mph N/A   Mostly Cloudy
10:35 AM 6.3 °F -10.0 °F -4.0 °F 63% 30.18 in 10.0 mi South 12.7 mph 20.7 mph N/A   Scattered Clouds
10:55 AM 7.0 °F -7.5 °F -3.5 °F 62% 30.17 in 10.0 mi South 10.4 mph 17.3 mph N/A   Mostly Cloudy
11:15 AM 7.7 °F -6.6 °F -2.2 °F 64% 30.15 in 10.0 mi SSE 10.4 mph - N/A   Overcast
11:35 AM 9.3 °F -6.1 °F -1.5 °F 62% 30.14 in 10.0 mi SSE 12.7 mph - N/A   Overcast
11:55 AM 10.0 °F -3.7 °F -0.8 °F 62% 30.13 in 10.0 mi SSE 10.4 mph - N/A   Mostly Cloudy
12:15 PM 10.4 °F -4.1 °F -0.6 °F 61% 30.11 in 10.0 mi SSE 11.5 mph - N/A   Mostly Cloudy
12:35 PM 11.3 °F -2.9 °F 0.1 °F 61% 30.10 in 10.0 mi SSE 11.5 mph - N/A   Overcast
12:55 PM 12.6 °F -0.6 °F 0.9 °F 60% 30.08 in 10.0 mi SSE 10.4 mph - N/A   Mostly Cloudy
1:15 PM 13.5 °F -0.2 °F 2.3 °F 61% 30.08 in 10.0 mi SSE 11.5 mph - N/A   Mostly Cloudy
1:35 PM 14.0 °F -0.8 °F 2.5 °F 60% 30.06 in 10.0 mi SSE 13.8 mph - N/A   Mostly Cloudy
1:55 PM 14.0 °F -0.8 °F 3.2 °F 62% 30.06 in 10.0 mi SSE 13.8 mph 18.4 mph N/A   Mostly Cloudy
2:35 PM 14.9 °F 0.9 °F 4.8 °F 64% 30.04 in 10.0 mi South 12.7 mph 21.9 mph N/A   Scattered Clouds
2:55 PM 14.9 °F 0.9 °F 5.7 °F 67% 30.03 in 10.0 mi SSE 12.7 mph - N/A   Scattered Clouds
3:15 PM 16.2 °F 0.8 °F 7.5 °F 69% 30.03 in 10.0 mi SSE 16.1 mph 19.6 mph N/A   Scattered Clouds
3:35 PM 16.7 °F 2.0 °F 8.6 °F 70% 30.02 in 10.0 mi SSE 15.0 mph - N/A   Mostly Cloudy
3:55 PM 16.7 °F 3.2 °F 9.3 °F 73% 30.01 in 10.0 mi SSE 12.7 mph - N/A   Scattered Clouds
4:15 PM 16.7 °F 4.5 °F 9.1 °F 72% 30.01 in 10.0 mi SSE 10.4 mph 16.1 mph N/A   Clear
5:14 PM 14.2 °F 0.7 °F 6.8 °F 73% 29.98 in 10.0 mi SSE 11.5 mph - N/A   Clear
5:35 PM 14.0 °F -0.2 °F 6.4 °F 72% 29.97 in 10.0 mi SSE 12.7 mph 16.1 mph N/A   Clear
5:55 PM 14.0 °F 1.2 °F 6.8 °F 73% 29.96 in 10.0 mi SSE 10.4 mph - N/A   Clear
6:14 PM 14.0 °F 1.2 °F 7.3 °F 75% 29.96 in 10.0 mi SSE 10.4 mph - N/A   Clear
6:35 PM 14.5 °F 0.5 °F 7.7 °F 74% 29.95 in 10.0 mi SSE 12.7 mph 16.1 mph N/A   Clear
6:55 PM 14.7 °F 2.9 °F 7.7 °F 74% 29.95 in 10.0 mi SSE 9.2 mph - N/A   Clear
7:14 PM 14.7 °F 2.9 °F 7.7 °F 74% 29.95 in 10.0 mi SSE 9.2 mph - N/A   Clear
7:35 PM 14.7 °F 2.9 °F 7.7 °F 74% 29.95 in 10.0 mi SSE 9.2 mph - N/A   Clear
7:55 PM 14.5 °F 3.6 °F 7.7 °F 74% 29.94 in 10.0 mi South 8.1 mph - N/A   Clear
8:15 PM 14.4 °F 5.5 °F 8.1 °F 76% 29.94 in 10.0 mi SSE 5.8 mph - N/A   Clear
8:35 PM 14.4 °F 4.3 °F 8.6 °F 78% 29.94 in 10.0 mi SSE 6.9 mph - N/A   Clear
8:55 PM 13.8 °F 3.7 °F 8.6 °F 80% 29.93 in 10.0 mi SSE 6.9 mph - N/A   Clear
9:15 PM 13.3 °F 3.0 °F 8.6 °F 82% 29.92 in 10.0 mi SSE 6.9 mph - N/A   Clear
9:35 PM 13.1 °F 4.0 °F 9.0 °F 84% 29.92 in 10.0 mi SSE 5.8 mph - N/A   Clear
9:54 PM 13.1 °F 4.0 °F 9.5 °F 86% 29.92 in 10.0 mi SSE 5.8 mph - N/A   Scattered Clouds
10:15 PM 13.8 °F 4.9 °F 10.4 °F 86% 29.91 in 10.0 mi SSE 5.8 mph - N/A   Overcast
10:35 PM 14.4 °F 6.9 °F 11.3 °F 88% 29.91 in 10.0 mi SSE 4.6 mph - N/A   Overcast
10:54 PM 13.8 °F 3.7 °F 11.1 °F 89% 29.91 in 10.0 mi SSE 6.9 mph - N/A   Mostly Cloudy
11:15 PM 14.2 °F 4.1 °F 11.8 °F 90% 29.90 in 10.0 mi SSE 6.9 mph - N/A   Overcast
11:31 PM 15.4 °F 3.8 °F 13.1 °F 90% 29.89 in 10.0 mi SSE 9.2 mph - N/A   Overcast